When you browse on this site, cookies collect data to enhance your experience and personalize the content and advertising you see.
Visit our Privacy Policy to learn more. By continuing to use the site, you agree to this use of cookies and data.
  • In Austria
  • List of Countries
  • For 7 days
  • Water Temperature
  • Weather Map
  • News
  • Weather Widgets
  • user-avatar
    Login

    Hourly Weather Gedzhon

    Today, 19 September, Thursday

    Time Temperature Precipitation Wind Pressure Humidity
    00:00 +13°C° 0 mm 1 mps 748 mmHg 79%
    01:00 +14°C° 0 mm 1 mps 748 mmHg 81%
    02:00 +14°C° 0 mm 2 mps 748 mmHg 81%
    03:00 +14°C° 0 mm 2 mps 749 mmHg 84%
    04:00 +14°C° 0 mm 2 mps 749 mmHg 88%
    05:00 +15°C° 0 mm 2 mps 749 mmHg 92%
    06:00 +16°C° 0 mm 3 mps 749 mmHg 84%
    07:00 +18°C° 0 mm 3 mps 749 mmHg 77%
    08:00 +20°C° 0 mm 4 mps 750 mmHg 70%
    09:00 +21°C° 0 mm 3 mps 749 mmHg 64%
    10:00 +22°C° 0 mm 3 mps 749 mmHg 59%
    11:00 +25°C° 0 mm 3 mps 749 mmHg 53%
    12:00 +25°C° 0 mm 2 mps 748 mmHg 50%
    13:00 +26°C° 0 mm 2 mps 748 mmHg 46%
    14:00 +26°C° 0 mm 2 mps 748 mmHg 43%
    15:00 +25°C° 0 mm 2 mps 748 mmHg 52%
    16:00 +23°C° 0 mm 2 mps 747 mmHg 60%
    17:00 +21°C° 0 mm 1 mps 747 mmHg 69%
    18:00 +20°C° 0 mm 1 mps 748 mmHg 73%
    19:00 +18°C° 0 mm 1 mps 748 mmHg 78%
    20:00 +16°C° 0 mm 1 mps 748 mmHg 83%
    21:00 +15°C° 0 mm 1 mps 748 mmHg 83%
    22:00 +14°C° 0 mm 0 mps 748 mmHg 83%
    23:00 +13°C° 0 mm 0 mps 748 mmHg 83%

    Tomorrow, 20 September, Friday

    Time Temperature Precipitation Wind Pressure Humidity
    00:00 +13°C° 0 mm 0 mps 747 mmHg 83%
    01:00 +14°C° 0 mm 1 mps 747 mmHg 82%
    02:00 +14°C° 0 mm 1 mps 747 mmHg 82%
    03:00 +14°C° 0 mm 1 mps 747 mmHg 83%
    04:00 +14°C° 0 mm 1 mps 747 mmHg 84%
    05:00 +14°C° 0 mm 1 mps 747 mmHg 85%
    06:00 +16°C° 0 mm 1 mps 747 mmHg 80%
    07:00 +17°C° 0 mm 2 mps 747 mmHg 75%
    08:00 +19°C° 0 mm 2 mps 748 mmHg 69%
    09:00 +20°C° 0 mm 3 mps 747 mmHg 64%
    10:00 +21°C° 0 mm 4 mps 747 mmHg 58%
    11:00 +23°C° 0 mm 5 mps 747 mmHg 53%
    12:00 +23°C° 0 mm 5 mps 747 mmHg 53%
    13:00 +23°C° 0 mm 4 mps 747 mmHg 53%
    14:00 +25°C° 0 mm 4 mps 746 mmHg 52%
    15:00 +23°C° 0 mm 4 mps 746 mmHg 57%
    16:00 +21°C° 0 mm 5 mps 747 mmHg 62%
    17:00 +20°C° 0 mm 5 mps 747 mmHg 67%
    18:00 +19°C° 0 mm 5 mps 747 mmHg 68%
    19:00 +17°C° 0 mm 5 mps 747 mmHg 70%
    20:00 +17°C° 0 mm 5 mps 748 mmHg 71%
    21:00 +16°C° 0 mm 5 mps 748 mmHg 73%
    22:00 +16°C° 0 mm 5 mps 747 mmHg 76%
    23:00 +16°C° 0 mm 5 mps 747 mmHg 78%

    Day after tomorrow, 21 September, Saturday

    Time Temperature Precipitation Wind Pressure Humidity
    00:00 +17°C° 0 mm 4 mps 747 mmHg 80%
    01:00 +17°C° 0 mm 4 mps 747 mmHg 81%
    02:00 +17°C° 0 mm 3 mps 747 mmHg 83%
    03:00 +16°C° 0 mm 3 mps 747 mmHg 83%
    04:00 +16°C° 0 mm 3 mps 747 mmHg 84%
    05:00 +16°C° 0 mm 3 mps 747 mmHg 84%
    06:00 +18°C° 0 mm 4 mps 747 mmHg 79%
    07:00 +19°C° 0 mm 5 mps 747 mmHg 74%
    08:00 +21°C° 0 mm 6 mps 747 mmHg 69%
    09:00 +20°C° 0.1 mm 6 mps 747 mmHg 73%
    10:00 +19°C° 0.1 mm 5 mps 747 mmHg 77%
    11:00 +19°C° 0.1 mm 5 mps 747 mmHg 81%
    12:00 +17°C° 0.3 mm 5 mps 747 mmHg 83%
    13:00 +17°C° 0.3 mm 5 mps 746 mmHg 85%
    14:00 +16°C° 0.3 mm 5 mps 746 mmHg 87%
    15:00 +16°C° 0.7 mm 5 mps 746 mmHg 88%
    16:00 +15°C° 0.7 mm 6 mps 746 mmHg 88%
    17:00 +15°C° 0.7 mm 6 mps 746 mmHg 88%
    18:00 +15°C° 0.5 mm 6 mps 746 mmHg 89%
    19:00 +15°C° 0.5 mm 5 mps 746 mmHg 89%
    20:00 +14°C° 0.5 mm 5 mps 746 mmHg 89%
    21:00 +15°C° 0.1 mm 5 mps 746 mmHg 88%
    22:00 +15°C° 0.1 mm 5 mps 746 mmHg 88%
    23:00 +15°C° 0.1 mm 5 mps 745 mmHg 87%

    22 September, Sunday

    Time Temperature Precipitation Wind Pressure Humidity
    00:00 +15°C° 0.4 mm 5 mps 745 mmHg 88%
    01:00 +15°C° 0.4 mm 5 mps 745 mmHg 89%
    02:00 +15°C° 0.4 mm 5 mps 744 mmHg 90%
    03:00 +15°C° 1.3 mm 5 mps 744 mmHg 91%
    04:00 +15°C° 1.3 mm 5 mps 744 mmHg 91%
    05:00 +15°C° 1.3 mm 5 mps 743 mmHg 91%
    06:00 +15°C° 1.1 mm 5 mps 743 mmHg 91%
    07:00 +15°C° 1.1 mm 6 mps 743 mmHg 91%
    08:00 +15°C° 1.1 mm 6 mps 743 mmHg 91%
    09:00 +16°C° 1 mm 6 mps 742 mmHg 89%
    10:00 +16°C° 1 mm 6 mps 742 mmHg 87%
    11:00 +17°C° 1 mm 7 mps 741 mmHg 85%
    12:00 +17°C° 0.3 mm 6 mps 741 mmHg 83%
    13:00 +17°C° 0.3 mm 6 mps 741 mmHg 80%
    14:00 +16°C° 0.3 mm 5 mps 741 mmHg 78%
    15:00 +16°C° 0 mm 5 mps 741 mmHg 77%
    16:00 +17°C° 0 mm 4 mps 741 mmHg 76%
    17:00 +17°C° 0 mm 3 mps 742 mmHg 75%
    18:00 +16°C° 0 mm 3 mps 742 mmHg 75%
    19:00 +16°C° 0 mm 2 mps 743 mmHg 75%
    20:00 +15°C° 0 mm 2 mps 744 mmHg 74%
    21:00 +15°C° 0 mm 2 mps 744 mmHg 77%
    22:00 +14°C° 0 mm 2 mps 745 mmHg 79%
    23:00 +13°C° 0 mm 2 mps 745 mmHg 81%

    23 September, Monday

    Time Temperature Precipitation Wind Pressure Humidity
    00:00 +12°C° 0 mm 1 mps 745 mmHg 81%
    01:00 +12°C° 0 mm 1 mps 745 mmHg 81%
    02:00 +11°C° 0 mm 1 mps 746 mmHg 81%
    03:00 +10°C° 0 mm 0 mps 746 mmHg 80%
    04:00 +10°C° 0 mm 0 mps 746 mmHg 80%
    05:00 +9°C° 0 mm 0 mps 747 mmHg 80%
    06:00 +12°C° 0 mm 0 mps 747 mmHg 74%
    07:00 +14°C° 0 mm 0 mps 748 mmHg 68%
    08:00 +16°C° 0 mm 0 mps 748 mmHg 62%
    09:00 +20°C° 0 mm 1 mps 748 mmHg 58%
    10:00 +22°C° 0 mm 1 mps 748 mmHg 53%
    11:00 +23°C° 0 mm 2 mps 748 mmHg 49%
    12:00 +23°C° 0 mm 2 mps 748 mmHg 49%
    13:00 +23°C° 0 mm 2 mps 748 mmHg 50%
    14:00 +22°C° 0 mm 3 mps 747 mmHg 50%
    15:00 +21°C° 0 mm 3 mps 747 mmHg 58%
    16:00 +19°C° 0 mm 2 mps 748 mmHg 66%
    17:00 +18°C° 0 mm 2 mps 748 mmHg 74%
    18:00 +17°C° 0 mm 2 mps 748 mmHg 78%
    19:00 +15°C° 0 mm 1 mps 748 mmHg 81%
    20:00 +14°C° 0 mm 1 mps 749 mmHg 85%
    21:00 +14°C° 0 mm 1 mps 749 mmHg 86%
    22:00 +13°C° 0 mm 1 mps 749 mmHg 88%
    23:00 +13°C° 0 mm 1 mps 749 mmHg 89%

    24 September, Tuesday

    Time Temperature Precipitation Wind Pressure Humidity
    00:00 +12°C° 0 mm 0 mps 749 mmHg 89%
    01:00 +11°C° 0 mm 0 mps 749 mmHg 90%
    02:00 +11°C° 0 mm 0 mps 749 mmHg 91%
    03:00 +11°C° 0 mm 0 mps 749 mmHg 91%
    04:00 +11°C° 0 mm 0 mps 749 mmHg 92%
    05:00 +11°C° 0 mm 0 mps 749 mmHg 92%
    06:00 +13°C° 0 mm 0 mps 750 mmHg 85%
    07:00 +15°C° 0 mm 0 mps 750 mmHg 79%
    08:00 +17°C° 0 mm 0 mps 750 mmHg 72%
    09:00 +19°C° 0 mm 0 mps 750 mmHg 64%
    10:00 +21°C° 0 mm 0 mps 750 mmHg 57%
    11:00 +23°C° 0 mm 0 mps 750 mmHg 49%
    12:00 +25°C° 0 mm 1 mps 750 mmHg 47%
    13:00 +25°C° 0 mm 1 mps 750 mmHg 46%
    14:00 +25°C° 0 mm 1 mps 750 mmHg 45%
    15:00 +24°C° 0 mm 1 mps 750 mmHg 53%
    16:00 +22°C° 0 mm 1 mps 749 mmHg 61%
    17:00 +20°C° 0 mm 1 mps 749 mmHg 69%
    18:00 +17°C° 0 mm 0 mps 750 mmHg 74%
    19:00 +16°C° 0 mm 0 mps 750 mmHg 78%
    20:00 +14°C° 0 mm 0 mps 751 mmHg 83%
    21:00 +14°C° 0 mm 0 mps 751 mmHg 84%
    22:00 +14°C° 0 mm 0 mps 751 mmHg 85%
    23:00 +14°C° 0 mm 0 mps 751 mmHg 86%
    Show more